WESTFORD NEEDLES, 19051

Orbit data source: Space-Track

WESTFORD NEEDLES, 19051 is space debris in LEO originally from a launch on Thu, 09 May 1963 UTC launched from the Air Force Western Test Range (AFWTR). Debris objects in space refer to the collection of defunct objects orbiting the Earth. Examples of debris include non-operational satellites, rocket bodies, and fragments generated from explosions, collisions, or faulty payload assembly.

Loading next visibility...
Identifier
19051, 1963-014EA
Orbit
LEO
Country
Flag of USUS
Related business
Manufacturer
Unknown
Mission
Spacecraft
Bus & Motor
Unknown
Mass
Unknown
Launch date (UTC)
1963-05-09 (63 years ago)
Launch vehicle
Unknown
Launch site
Air Force Western Test Range (AFWTR)
Object type
Payload
Rocket body
Debris
Shape & HBR
Unknown shape, 0.2 m
Radar Cross Section
Medium (>0.1 m² and <1 m²)

Expand to show TLE details & history
Last TLE update: 2 days ago

TLE from 2 days ago
0 WESTFORD NEEDLES
1 19051U 63014EA  26034.31282724 -.00000185  00000-0 -85919-1 0  9993
2 19051  87.3789 164.9852 0158265  48.3891 313.0405  8.66784551431740
Epoch: 2026-02-03T07:30Z
TLE epoch observation values (Epoch: 2026-02-03T07:30:28.273Z)
Latitude
0.00007°
Longitude
-81.12816°
Altitude
3,527.891 km
Speed
6.378 km/s
True Right ascension
10h 59m 56s
True Declination
0° 00' 00"
Sunlit
Object was in full shadow at epoch
Visualization orbit readout
Latitude
Unknown
Longitude
Unknown
Altitude
Unknown
Speed
Unknown
Apparent Right ascension
Unknown
Apparent Declination
Unknown
Sunlit
N/A
Visualization observer readout
Local Sidereal Time
20:55:09
Azimuth
Unknown
Elevation
Unknown
Doppler factor
Unknown
Orbital elements
Apogee altitude
3,788.703 km
Perigee altitude
3,471.906 km
Semi-major axis
10,008.442 km
Eccentricity
0.01583
Inclination
87.3789°
RAAN
164.9852°
Arg. of periapsis
48.3891°
True anomaly
311.697°
Mean anomaly
313.0405°
Eccentric anomaly
312.37056°
Mean motion
2.16767 °/min
Orbital period
166.08 mins
BSTAR
-0.085919
Loading maneuver chart data...
Computing Atmospheric mass density...

Documentation

Showing up to 5 results
|